Weather History for KMLP - September, 2013

Change the Weather History Date:

Thursday, September 19, 2013

  Actual Average (K3TH) Record (K3TH)
Temperature  
Mean Temperature 44 °F -  
Max Temperature 53 °F 70 °F 77 °F (2002)
Min Temperature 37 °F 46 °F 46 °F (1997)
Degree Days  
Heating Degree Days 20    
Moisture  
Dew Point 36 °F    
Average Humidity 76    
Maximum Humidity 96    
Minimum Humidity 56    
Precipitation  
Precipitation 0.00 in - - ()
Sea Level Pressure  
Sea Level Pressure 30.03 in    
Wind  
Wind Speed 5 mph (South)    
Max Wind Speed 8 mph    
Max Gust Speed -    
Visibility 10 miles    
Events      
Averages and records for this station are not official NWS values.
T = Trace of Precipitation, MM = Missing Value Source: NWS Daily Summary

Daily Weather History Graph

Daily Weather History Graph

Search for Another Location

Airport or City:

Trip Planner

Search our weather history database for the weather conditions in past years. The results will help you decide how hot, cold, wet, or windy it might be!

Date:

Astronomy

Sep. 19, 2013 Rise Set
Actual Time 6:25 AM PDT 6:45 PM PDT
Civil Twilight 5:55 AM PDT 7:16 PM PDT
Nautical Twilight 5:18 AM PDT 7:52 PM PDT
Astronomical Twilight 4:41 AM PDT 8:30 PM PDT
Moon 6:40 PM PDT (9/19) 6:43 AM PDT (9/19)
Length of Visible Light 13h 21m
Length of Day
12h 20m
Full, 100% of the Moon is Illuminated
Sep 19
Full
Sep 26
Last Quarter
Oct 4
New
Oct 11
First Quarter
Oct 18
Full

Hourly Weather History & Observations

Time (PDT) Temp. Windchill Dew Point Humidity Pressure Visibility Wind Dir Wind Speed Gust Speed Precip Events Conditions
12:53 AM 37.9 °F 34.4 °F 36.0 °F 93% 30.04 in 10.0 mi West 4.6 mph - N/A   Clear
1:14 AM 37.4 °F 33.8 °F 35.6 °F 93% 30.15 in 10.0 mi WSW 4.6 mph - N/A   Mostly Cloudy
1:21 AM 37.4 °F 34.9 °F 35.6 °F 93% 30.15 in 10.0 mi WSW 3.5 mph - N/A   Mostly Cloudy
1:53 AM 37.9 °F 34.4 °F 36.0 °F 93% 30.04 in 10.0 mi Variable 4.6 mph - N/A   Clear
2:53 AM 37.9 °F 32.7 °F 35.1 °F 89% 30.04 in 10.0 mi WSW 6.9 mph - N/A   Clear
3:53 AM 37.0 °F 33.3 °F 35.1 °F 93% 30.06 in 10.0 mi Variable 4.6 mph - N/A   Clear
4:53 AM 39.0 °F 36.8 °F 35.1 °F 86% 30.05 in 10.0 mi Variable 3.5 mph - N/A   Mostly Cloudy
5:53 AM 37.9 °F - 34.0 °F 86% 30.05 in 10.0 mi Calm Calm - N/A   Clear
6:53 AM 37.0 °F 32.4 °F 36.0 °F 96% 30.07 in 10.0 mi South 5.8 mph - N/A   Clear
7:53 AM 39.0 °F 35.7 °F 37.0 °F 93% 30.08 in 10.0 mi SSE 4.6 mph - N/A   Clear
8:53 AM 41.0 °F 37.1 °F 37.9 °F 89% 30.07 in 10.0 mi SSE 5.8 mph - N/A   Clear
9:53 AM 42.1 °F 39.2 °F 39.0 °F 89% 30.07 in 10.0 mi Variable 4.6 mph - N/A   Clear
10:33 AM 44.6 °F 40.7 °F 39.2 °F 81% 30.21 in 10.0 mi SSE 6.9 mph - N/A   Partly Cloudy
10:53 AM 44.1 °F 40.8 °F 41.0 °F 89% 30.07 in 10.0 mi Variable 5.8 mph - N/A   Partly Cloudy
11:53 AM 46.0 °F 44.8 °F 39.9 °F 79% 30.06 in 10.0 mi Variable 3.5 mph - N/A   Partly Cloudy
12:53 PM 48.9 °F - 37.0 °F 64% 30.04 in 10.0 mi SSE 6.9 mph - N/A   Partly Cloudy
1:53 PM 50.0 °F - 35.1 °F 57% 30.03 in 10.0 mi Variable 4.6 mph - N/A   Clear
2:53 PM 52.0 °F - 37.0 °F 57% 30.01 in 10.0 mi Variable 3.5 mph - N/A   Clear
3:53 PM 51.1 °F - 36.0 °F 56% 30.00 in 10.0 mi Calm Calm - N/A   Clear
4:53 PM 51.1 °F - 36.0 °F 56% 29.98 in 10.0 mi SSW 3.5 mph - N/A   Clear
5:53 PM 50.0 °F - 35.1 °F 57% 29.97 in 10.0 mi Variable 3.5 mph - N/A   Clear
6:53 PM 46.9 °F - 34.0 °F 61% 29.97 in 10.0 mi Variable 3.5 mph - N/A   Clear
7:53 PM 46.9 °F - 33.1 °F 59% 29.99 in 10.0 mi SE 4.6 mph - N/A   Clear
8:53 PM 46.0 °F 41.9 °F 33.1 °F 61% 29.95 in 10.0 mi SSE 8.1 mph - N/A   Clear
9:53 PM 46.0 °F 41.9 °F 33.1 °F 61% 29.94 in 10.0 mi SSE 8.1 mph - N/A   Clear
10:53 PM 45.0 °F 41.2 °F 30.9 °F 58% 29.93 in 10.0 mi SSE 6.9 mph - N/A   Clear
11:53 PM 45.0 °F 41.2 °F 33.1 °F 63% 29.90 in 10.0 mi SSE 6.9 mph - N/A   Clear